Regional Weather Roundup
Issued by NWS

Home | Current Version | Previous Version | Text Only | Print | Product List | Glossary Off
Versions: 1 2 3 4 5 6 7 8 9 10 11 12 13 14 15 16 17 18 19 20 21 22 23 24 25 26 27 28 29 30 31 32 33 34 35 36 37 38 39 40 41 42 43 44 45 46 47 48 49 50

000
ASUS43 KIND 120109
RWRIN

WEATHER ROUNDUP FOR INDIANA
NATIONAL WEATHER SERVICE INDIANAPOLIS IN
900 PM EDT FRI JUL 11 2014

NOTE: "FAIR" INDICATES FEW OR NO CLOUDS BELOW 12,000 FEET WITH NO
SIGNIFICANT WEATHER AND/OR OBSTRUCTIONS TO VISIBILITY.

* - STATION DOES NOT REPORT WEATHER SUCH AS PRECIPITATION OR FOG.

+ - STATION NOT QUALITY CONTROLLED BY THE NATIONAL WEATHER SERVICE.
    USE DATA WITH CAUTION...ESPECIALLY DEWPOINT AND RELATIVE
    HUMIDITY OBSERVATIONS.

INZ001>003-010>013-019-020-120200-
NORTHWEST INDIANA

CITY           SKY/WX    TMP DP  RH WIND       PRES   REMARKS
GARY /AIRPORT/ MOCLDY    77  57  50 S5        30.13R
KNOX *+        CLOUDY    72  61  67 CALM      30.13S
LA PORTE +     CLOUDY    71  64  76 CALM      30.16R
MICHIGAN CITY+ CLOUDY    68  61  77 CALM      30.15R
MONTICELLO +   PTCLDY    74  63  68 SW3       30.14R
RENSSELAER +   MOCLDY    73  63  68 S5        30.14S
VALPARAISO     CLOUDY    72  61  68 CALM      30.14S

$$

LMZ046-743>745-120200-
SOUTHERN LAKE MICHIGAN

STATION/POSITION TIME  TEMP WIND        PRES
                       AIR  DIR/SP/G
                 (UTC) (F)  (DEG/KT/KT) (MB)
BURNS HARBOR     0000   75  190/  9/ 12 1020.3R
MICHIGAN CITY    0100   74  170/  4/  7   N/A

$$

INZ004-005-014>016-021>024-120200-
NORTH CENTRAL INDIANA

CITY           SKY/WX    TMP DP  RH WIND       PRES   REMARKS
ELKHART        CLOUDY    73  57  56 CALM      30.15
GOSHEN         CLOUDY    74  63  68 S3        30.14S
LOGANSPORT +   MOCLDY    73  61  64 S3        30.14F
PERU/GRISSOM   CLOUDY    76  62  62 SE5       30.14S
ROCHESTER +    CLOUDY    77  59  53 CALM      30.15R
SOUTH BEND     CLOUDY    74  60  61 CALM      30.15R
WARSAW +       LGT RAIN  73  57  56 CALM      30.14S

$$

INZ006>009-017-018-025>027-120200-
NORTHEAST INDIANA

CITY           SKY/WX    TMP DP  RH WIND       PRES   REMARKS
ANGOLA *+      PTCLDY    73  64  73 CALM      30.15F
AUBURN +       CLOUDY    72  57  60 CALM      30.16F
FORT WAYNE     CLOUDY    76  57  51 CALM      30.16S
HUNTINGTON +   MOCLDY    73  62  70 CALM      30.15S

$$

INZ028-029-035-036-043>045-051>053-120200-
WEST CENTRAL INDIANA

CITY           SKY/WX    TMP DP  RH WIND       PRES   REMARKS
GREENCASTLE +  CLEAR     72  63  73 CALM      30.16R
LAFAYETTE      PTCLDY    75  61  61 SW3       30.14S
TERRE HAUTE    CLEAR     76  64  66 CALM      30.14R

$$

INZ030>032-037>040-046>048-054>057-064-065-120200-
CENTRAL INDIANA

CITY           SKY/WX    TMP DP  RH WIND       PRES   REMARKS
CP ATTERBURY + CLEAR     73  63  68 CALM      30.16S
COLUMBUS       CLEAR     75  63  64 CALM      30.15
INDIANAPOLIS   PTCLDY    74  59  59 SW6       30.15S
-EAGLE CREEK   PTCLDY    77  56  48 CALM      30.15S
KOKOMO *+      CLOUDY    73  63  68 S5        30.15S
MARION +       MOCLDY    71  61  70 SE5       30.16S
MT COMFORT *+  PTCLDY    73  63  68 SE3       30.16F
SHELBYVILLE    CLEAR     75  65  70 E5        30.15S
ZIONSVILLE +   PTCLDY    76  59  56 SW3       30.16S

$$

INZ033-034-041-042-049-050-058-059-120200-
EAST CENTRAL INDIANA

CITY           SKY/WX    TMP DP  RH WIND       PRES   REMARKS
MUNCIE         PTCLDY    76  56  49 SW3       30.16S

$$

INZ060-061-067>069-081>083-085>088-120200-
SOUTHWEST INDIANA

CITY           SKY/WX    TMP DP  RH WIND       PRES   REMARKS
EVANSVILLE     CLEAR     83  62  49 NW3       30.13S
HUNTINGBURG *+ CLEAR     79  63  57 CALM      30.14S
WASHINGTON +   CLEAR     75  71  87 CALM      30.13S

$$

INZ062-063-066-070>080-084-089>092-120200-
SOUTH CENTRAL AND SOUTHEAST INDIANA

CITY           SKY/WX    TMP DP  RH WIND       PRES   REMARKS
BLOOMINGTON    CLEAR     73  64  73 CALM      30.15S
SEYMOUR +      CLEAR     73  48  40 CALM      30.14

$$



USA.gov is the U.S. government's official web portal to all federal, state and local government web resources and services.